Location: *
(58.7167°N, 26.1833°E)
Time: 22:43:27
(UTC+00:00)

Cosmos 2228 - Pass Details

Date: 25 August 2019
Orbit: 590 x 617 km, 82.5° (Epoch: 14 September)

Event Time Altitude Azimuth Distance (km) Brightness Sun altitude
Exits shadow 23:41:16 42° 216° (SW) 858 3.3 -18.6°
Maximum altitude 23:42:35 69° 285° (WNW) 648 3.0 -18.6°
Drops below altitude 10° 23:46:56 10° 10° (N) 1,967 6.8 -18.4°
Sets 23:49:11 0° 13° (NNE) 2,881 8.1 -18.2°
